Zurück zum Katalog

CZ-6A DEB

AktivSSO
NORAD 54580·DEBRIS·🇨🇳 China

Gestartet Nov 11, 2022 von Taiyuan Satellite Launch Center

Loading…

Nächste Überflüge (nächste 24 Stunden)

TLE

AktuellSource: Space-Track

Epoche: Sep 14, 2026, 11:56 UTC

1 54580U 22151MG  26257.49779474  .00003529  00000-0  14715-2 0  9995
2 54580  98.8598 273.9923 0087984 104.6713 256.4239 14.24798655197531

Verfolge CZ-6A DEB in Echtzeit mit AllMySat

Download on the App Store